sat.trackr.live / text

‹ back to catalog

QUBE

NORAD 60476 · 2024-149J

PAYLOAD ACTIVE UNKNOWN

§ Identity

Operator
Country
GER
Launch date
2024-08-16
Launch site
AFWTR
Launch vehicle
Mass (kg)
RCS (m²)

External: N2YO · Heavens-Above · Gunter

§ Orbital elements

Epoch: 2026-09-22T21:11:30.410304Z

Period
92.79 min
Inclination
97.3752°
Eccentricity
0.0001997
Mean motion
15.51904689 rev/d
Perigee alt
409.8 km
Apogee alt
412.5 km
Semi-major
6,789.3 km
B*
3.8002e-4
RAAN
354.5037°
Arg perigee
196.1905°
Mean anomaly
163.9284°
Rev number
11,759

§ Raw data

QUBE1 60476U 24149J   26265.88299086  .00022719  00000+0  38002-3 0  99902 60476  97.3752 354.5037 0001997 196.1905 163.9284 15.51904689117596

JSON: /api/v1/satellites/60476 · /tle

For live sub-satellite position, see the globe view (requires WebGL).

§ Visibility from observer

Set your observer location to see the next 7 days of passes ≥ 10°. The values pass through the URL so the page stays shareable.

No JS? Fill the form by hand. The geolocation button needs JavaScript.

§ Radio — SatNOGS DB

ModeDescriptionDownlinkUplink
FSK Mode U - FSK9k6 - Transmitter 435.600 MHz

1 transmitter · refreshed weekly from db.satnogs.org